Location: College Park
(38.9810°N, 76.9370°W)
Time: 03:27:50
(UTC-05:00)

Vanguard 2 - All Passes

Search period start: 18 November 2017 00:00
Search period end: 28 November 2017 00:00
Orbit: 553 x 2940 km, 32.9° (Epoch: 17 November)

Date Brightness Start Highest point End Pass type
(mag) Time Alt. Az. Time Alt. Az. Time Alt. Az.
18 Nov - 01:21:53 10° WSW 01:31:41 66° S 01:47:22 10° E visible
18 Nov - 03:30:34 10° W 03:43:00 60° SSW 04:00:11 10° ESE visible
18 Nov - 05:41:03 10° W 05:54:33 37° SSW 06:09:52 10° SSE visible
18 Nov - 07:58:08 10° WSW 08:04:59 13° SW 08:11:50 10° SSW daylight
18 Nov - 21:27:46 10° S 21:32:07 18° SE 21:37:53 10° E night (unlit)
18 Nov - 23:32:28 10° SW 23:39:52 51° SSE 23:52:08 10° E visible
19 Nov - 01:39:54 10° W 01:49:52 66° S 02:05:42 10° ESE visible
19 Nov - 03:48:46 10° W 04:01:11 54° SSW 04:18:01 10° SE visible
19 Nov - 05:59:55 10° W 06:12:28 30° SW 06:26:31 10° SSE visible
19 Nov - 21:44:33 10° SSW 21:49:38 25° SE 21:56:58 10° E night (unlit)
19 Nov - 23:50:15 10° WSW 23:57:50 57° SSE 00:10:35 10° E visible
20 Nov - 01:57:59 10° W 02:08:04 64° S 02:23:58 10° ESE visible
20 Nov - 04:07:03 10° W 04:19:19 47° SSW 04:35:36 10° SE visible
20 Nov - 06:19:16 10° W 06:30:22 23° SW 06:42:33 10° S visible
20 Nov - 22:01:46 10° SSW 22:07:16 33° SSE 22:15:41 10° E night (unlit)
21 Nov - 00:08:09 10° WSW 00:15:54 61° S 00:28:58 10° E visible
21 Nov - 02:16:04 10° W 02:26:16 60° S 02:42:06 10° ESE visible
21 Nov - 04:25:29 10° W 04:37:25 39° SSW 04:52:53 10° SSE visible
21 Nov - 06:39:35 10° WSW 06:48:15 17° SW 06:57:32 10° S daylight
21 Nov - 22:19:16 10° SW 22:25:01 41° SSE 22:34:12 10° E night (unlit)
22 Nov - 00:26:06 10° WSW 00:34:00 63° S 00:47:19 10° E visible
22 Nov - 02:34:12 10° W 02:44:27 54° SSW 03:00:03 10° SE visible
22 Nov - 04:44:08 10° W 04:55:29 32° SSW 05:09:46 10° SSE visible
22 Nov - 07:03:21 10° SW 07:06:09 11° SW 07:09:00 10° SW daylight
22 Nov - 20:32:21 10° S 20:35:27 16° SE 20:39:18 10° ESE night (unlit)
22 Nov - 22:36:58 10° SW 22:42:53 48° SSE 22:52:38 10° E night (unlit)
23 Nov - 00:44:06 10° W 00:52:08 62° S 01:05:37 10° ESE visible
23 Nov - 02:52:24 10° W 03:02:36 47° SSW 03:17:47 10° SE visible
23 Nov - 05:03:10 10° W 05:13:31 25° SSW 05:26:06 10° SSE visible
23 Nov - 20:49:06 10° SSW 20:53:02 22° SE 20:58:22 10° E night (unlit)
23 Nov - 22:54:47 10° WSW 23:00:52 54° SSE 23:11:00 10° E night (unlit)
24 Nov - 01:02:08 10° W 01:10:17 58° S 01:23:48 10° ESE visible
24 Nov - 03:10:44 10° W 03:20:46 40° SSW 03:35:13 10° SE visible
24 Nov - 05:22:53 10° WSW 05:31:32 18° SW 05:41:36 10° S visible
24 Nov - 21:06:22 10° SSW 21:10:44 29° SSE 21:17:01 10° E night (unlit)
24 Nov - 23:12:40 10° WSW 23:18:53 57° S 23:29:20 10° E night (unlit)
25 Nov - 01:20:14 10° W 01:28:26 53° SSW 01:41:51 10° ESE visible
25 Nov - 03:29:14 10° W 03:38:53 33° SSW 03:52:18 10° SSE visible
25 Nov - 05:44:24 10° WSW 05:49:35 12° SW 05:55:13 10° SSW visible
25 Nov - 21:23:55 10° SW 21:28:32 37° SSE 21:35:28 10° E night (unlit)
25 Nov - 23:30:38 10° WSW 23:36:58 57° S 23:47:37 10° ESE night (unlit)
26 Nov - 01:38:22 10° W 01:46:35 46° SSW 01:59:42 10° SE visible
26 Nov - 03:48:04 10° WSW 03:57:01 26° SSW 04:08:53 10° SSE visible
26 Nov - 19:36:53 10° S 19:39:05 13° SE 19:41:35 10° ESE visible
26 Nov - 21:41:39 10° SW 21:46:25 44° SSE 21:53:49 10° E night (unlit)
26 Nov - 23:48:38 10° W 23:55:03 55° S 00:05:49 10° ESE night (unlit)
27 Nov - 01:56:37 10° W 02:04:45 39° SSW 02:17:17 10° SE visible
27 Nov - 04:07:28 10° WSW 04:15:08 19° SSW 04:24:43 10° S visible
27 Nov - 19:53:38 10° SSW 19:56:47 20° SSE 20:00:38 10° ESE visible
27 Nov - 21:59:29 10° WSW 22:04:23 48° S 22:12:07 10° E night (unlit)
